Location: Azul
(36.7830°S, 59.8500°W)
Time: 02:18:39
(UTC-03:00)

HuskySat-1 - Pass Details

Date: 29 October 2021
Orbit: 443 x 456 km, 51.6° (Epoch: 04 December)

Event Time Altitude Azimuth Distance (km) Brightness Sun altitude
Rises 21:23:56 0° 262° (W) 2,498 ? -21.1°
Reaches altitude 10° 21:26:53 10° 237° (WSW) 1,627 ? -21.5°
Maximum altitude 21:28:59 15° 202° (SSW) 1,373 ? -21.9°
Drops below altitude 10° 21:31:06 10° 167° (SSE) 1,631 ? -22.2°
Sets 21:34:04 0° 141° (SE) 2,509 ? -22.7°
